GOES 14 [S]

Last updated on Wed Sep 09 2020 05:41:48 GMT+0000 (Coordinated Universal Time)

1 35491U 09033A 20252.57645145 -.00000094 00000-0 00000-0 0 9999 2 35491 0.3995 271.3260 0013105 301.2908 238.5272 1.00273598 40989

Satellite not in orbit

GOES 14 [S]